EHI
0 0 0 0 0 0 0 0 0 0 0 0 0 0 0 0 0 0 0 0 0 0 0 0 0 0 0 0 0 0 0 0 0 0 0 0 0 0
0 0 0 0 0 0 0 0 0 0 0 0 0 0 0 0 0 0 0 0 0 0 0 0 0 0 0 0 0 0 0 0 0 0 0 0 0 0
0 0 0 0 0 0 0 0 0 0 0 0 0 0 0 0 0 0 0 0 0 0 0 0 0 0 0 0 0 0 0 0 0 0 0 0 0 0
0 0 0 0 0 0 0 0 0 0 0 0 0 0 0 0 0 0 0 0 0 0 0 0 0 0 0 0 0 0 0 0 0 0 0 0 0 0
0 0 0 0 0 0 0 0 0 0 0 0 0 0 0 0 0 0 0 0 0 0 0 0 0 0 0 0 0 0 0 0 0 0 0 0 0 0
0 0 0 0 0 0 0 0 0 0 0 0 0 0 0 0 0 0 0 0 0 0 0 0 0 0 0 0 0 0 0 0 0 0 0 0 0 0
0 0 0 0 0 0 0 0 0 0 0 0 0 0 0 0 0 0 0 0 0 0 0 0 0 0 0 0 0 0 0 0 0 0 0 0 0 0
0 0 0 0 0 0 0 0 0 0 0 0 0 0 0 0 0 0 0 0 0 0 0 0 0 0 0 0 0 0 0 0 0 0 0 0 0 0
0 0 0 0 0 0 0 0 0 0 0 0 0 0 0 0 0 0 0 0 0 0 0 0 0 0 0 0 0 0 0 0 0 0 0 0 0 0
0 0 0 0 0 0 0 0 0 0 0 0 0 0 0 0 0 0 0 0 0 0 0 0 0 0 0 0 0 0 0 0 0 0 0 0 0 0
0 0 0 0 0 0 0 0 0 0 0 0 0 0 0 0 0 0 0 0 0 0 0 0 0 0 0 0 0 0 0 0 0 0 0 0 0 0
0 0 0 0 0 0 0 0 0 0 0 0 0 0 0 0 0 0 0 0 0 0 0 0 0 0 0 0 0 0 0 0 0 0 0 0 0 0
0 0 0 0 0 0 0 0 0 0 0 0 0 0 0 0 0 0 0 0 0 0 0 0 0 0 0 0 0 0 0 0 0 0 0 0 0 0
0 0 0 0 0 0 0 0 0 0 0 0 0 0 0 0 0 0 0 0 0 0 0 0 0 0 0 0 0 0 0 0 0 0 0 0 0 0
0 0 0 0 0 0 0 0 0 0 0 0 0 0 0 0 0 0 0 0 0 0 0 0 0 0 0 0 0 0 0 0 0 0 0 0 0 0
0 0 0 0 0 0 0 0 0 0 0 0 0 0 0 0 0 0 0 0 0 0 0 0 0 0 0 0 0 0 0 0 0 0 0 0 0 0
0 0 0 0 0 0 0 0 0 0 0 0 0 0 0 0 0 0 0 0 0 0 0 0 0 0 0 0 0 0 0 0 0 0 0 0 0 0
0 0 0 0 0 0 0 0 0 0 0 0 0 0 0 0 0 0 0 0 0 0 0 0 0 0 0 0 0 0 0 0 0 0 0 0 0 0
0 0 0 0 0 0 0 0 0 0 0 0 0 0 0 0 0 0 0 0 0 0 0 0 0 0 0 0 0 0 0 0 0 0 0 0 0 0
0 0 0 0 0 0 0 0 0 0 0 0 0 0 0 0 0 0 0 0 0 0 0 0 0 0 0 0 0 0 0 0 0 0 0 0 0 0
0 0 0 0 0 0 0 0 0 0 0 0 0 0 0 0 0 0 0 0 0 0 0 0 0 0 0 0 0 0 0 0 0 0 0 0 0 0
0 0 0 0 0 0 0 0 0 0 0 0 0 0 0 0 0 0 0 0 0 0 0 0 0 0 0 0 0 0 0 0 0 0 0 0 0 0
0 0 0 0 0 0 0 0 0 0 0 0 0 0 0 0 0 0 0 0 0 0 0 0 0 0 0 0 0 0 0 0 0 0 0 0 0 0
Wind_Speed
9 9 6 5 4 4 4 5 5 4 4 3 2 2 2 2 3 3 2 3 2 2 2 4 5 6 7 8 9 10 12 12 13 14 16 17 18 19
8 9 8 5 5 4 4 3 3 4 4 3 2 2 2 2 3 2 2 2 2 2 2 3 4 5 6 7 8 10 11 12 13 14 15 16 17 18
10 10 10 7 6 5 4 4 3 3 3 2 1 1 2 2 1 1 1 1 1 2 2 3 4 5 6 7 8 9 10 11 12 14 15 16 17 18
12 11 10 8 8 6 5 5 4 4 4 4 2 2 2 2 2 1 0 0 0 2 3 3 4 5 6 6 7 8 9 10 11 13 14 15 16 17
12 12 11 10 9 6 6 6 4 3 3 4 3 1 1 1 1 1 0 0 1 1 2 3 5 5 5 6 7 7 8 9 11 12 13 14 16 17
11 11 11 11 11 9 7 7 5 5 4 4 3 2 2 1 2 1 0 0 1 1 2 3 4 4 5 6 6 7 8 9 11 12 13 14 15 16
10 9 10 12 13 11 8 8 7 5 5 4 3 2 2 2 3 2 2 0 1 0 1 2 2 1 2 4 5 7 8 9 11 12 13 13 14 15
10 9 9 11 13 14 14 13 12 9 8 6 4 5 5 4 3 3 2 1 2 1 1 2 1 1 2 2 5 7 8 9 10 11 13 13 14 15
10 9 7 8 11 8 10 10 10 10 11 9 7 7 6 6 6 4 3 2 2 1 0 1 1 2 2 3 5 6 8 9 10 11 12 12 13 14
10 10 10 9 9 10 8 7 5 5 7 6 6 6 5 6 7 6 4 2 1 0 1 1 1 2 2 2 4 5 8 9 10 11 12 12 13 13
9 9 10 10 14 15 10 8 6 3 4 7 7 7 8 8 8 6 4 2 1 1 0 1 1 2 2 2 3 5 8 9 10 11 12 12 13 11
6 8 11 12 16 17 12 10 9 6 6 6 6 6 5 7 9 6 5 3 2 2 1 1 0 1 2 2 2 3 4 7 10 11 12 13 12 6
7 6 7 14 16 17 13 9 11 10 7 7 5 4 4 3 3 3 3 3 3 2 3 2 1 0 1 2 3 2 2 3 4 6 9 12 12 8
7 6 7 14 15 15 11 11 15 12 6 6 5 4 4 3 3 3 3 2 1 3 4 3 2 2 1 1 3 3 3 3 3 4 4 9 9 11
5 9 11 15 14 11 12 15 13 7 7 6 6 4 3 3 4 3 3 4 4 2 1 1 2 1 1 2 2 2 3 3 3 4 4 5 4 4
5 9 12 13 9 9 10 9 6 6 6 6 5 4 4 4 3 3 2 2 2 2 2 1 0 2 1 2 2 3 3 3 4 5 5 5 4 3
6 5 5 6 6 5 5 5 5 5 5 5 6 5 5 4 3 3 3 2 2 1 1 2 2 1 1 2 1 2 3 3 4 4 5 5 4 4
8 6 6 6 7 7 7 6 5 5 5 6 6 6 6 5 4 3 2 2 2 2 1 0 1 2 2 2 3 2 2 3 4 4 3 4 5 4
6 6 6 6 6 7 7 6 6 5 6 6 6 6 6 5 5 4 3 2 2 2 1 1 0 1 1 2 4 2 2 3 4 3 3 3 4 5
4 6 6 6 6 7 6 6 6 6 6 6 6 6 6 5 5 5 4 3 3 2 1 1 1 1 1 2 2 3 4 3 2 3 4 3 4 7
4 5 5 6 6 6 6 6 6 7 7 6 6 6 6 6 5 5 4 5 4 3 2 2 2 1 1 1 1 2 3 4 4 2 3 3 4 4
5 5 5 6 6 6 7 7 6 6 7 6 6 6 5 5 6 6 5 5 3 2 2 1 0 1 1 1 0 2 3 5 5 6 4 2 2 3
5 5 5 6 6 6 6 7 8 7 6 6 6 6 6 5 5 5 5 4 4 4 3 2 1 1 1 0 0 1 3 4 4 4 4 6 7 7
Wind_Direction
186 184 185 186 176 172 161 160 161 184 219 215 203 203 187 177 182 174 196 223 240 268 302 318 322 330 334 334 335 336 338 338 338 336 335 337 337 337
184 184 189 187 178 172 171 169 168 173 203 200 188 173 166 168 176 168 202 207 239 270 305 316 323 329 330 330 332 335 338 338 338 337 338 339 338 339
187 187 191 183 181 179 171 170 177 167 189 198 146 135 144 161 152 162 179 191 244 270 305 315 325 325 328 330 333 336 338 339 339 339 340 340 339 338
191 189 191 183 185 179 176 180 183 178 173 184 173 155 166 175 162 169 166 135 234 269 303 320 325 323 326 328 334 340 342 341 341 341 341 341 340 340
191 190 189 182 188 184 180 183 182 173 166 161 169 152 148 141 131 129 113 54 308 294 307 318 320 322 327 331 338 344 347 345 342 343 343 344 342 341
191 190 188 188 189 183 184 185 175 169 162 152 157 150 149 132 132 153 233 321 310 335 328 322 323 333 340 340 343 347 348 345 344 344 345 345 344 341
188 190 189 188 185 183 182 181 175 175 168 169 168 160 167 164 183 177 192 284 291 318 317 305 321 326 330 336 341 342 347 348 347 345 345 346 346 343
186 188 188 187 184 183 181 179 178 179 184 183 188 188 196 189 166 164 151 145 252 248 269 283 324 305 313 308 326 343 347 350 348 345 345 347 347 345
186 185 184 183 180 181 176 174 180 179 181 184 188 197 188 185 167 165 177 184 210 211 192 259 278 280 290 306 323 342 346 349 347 344 345 347 347 346
185 184 181 179 178 171 166 171 181 186 185 184 187 188 181 173 172 168 163 126 76 97 107 219 275 287 299 296 307 339 346 347 346 344 344 346 345 346
183 182 180 180 173 165 163 166 161 157 145 146 143 143 143 148 140 122 124 120 158 208 135 129 289 316 302 281 300 330 341 343 345 344 344 344 344 348
178 182 182 179 173 168 171 170 170 167 146 132 125 125 131 141 140 147 158 150 143 199 198 133 156 1 316 290 292 309 325 333 342 343 342 342 344 348
177 182 183 174 171 171 172 176 171 154 148 141 135 126 118 122 129 126 141 152 153 187 182 142 154 183 220 291 300 303 317 314 322 328 336 338 342 343
179 177 173 168 168 167 169 160 149 142 141 141 142 145 145 143 129 114 102 87 114 173 177 162 172 191 205 274 278 302 312 301 308 317 318 328 335 337
166 162 161 162 161 162 157 152 148 147 149 151 159 160 150 141 123 104 87 79 63 60 111 179 187 195 197 222 259 286 307 304 312 319 316 315 314 319
139 144 147 150 146 145 149 151 150 158 156 157 150 137 129 130 130 124 119 104 75 33 18 19 253 184 203 242 238 267 281 289 310 317 312 307 304 301
136 131 137 145 147 147 144 142 146 148 145 139 139 140 140 138 138 133 126 119 110 126 358 358 359 355 222 200 230 259 282 293 297 312 319 315 304 303
142 149 156 158 159 161 159 156 157 156 152 147 147 150 152 152 147 142 137 138 135 146 155 286 7 15 16 331 225 244 279 288 306 314 316 312 309 315
146 157 163 165 163 164 163 162 162 158 152 152 152 153 152 152 153 152 151 144 137 139 154 163 116 71 54 316 297 257 255 301 319 322 319 307 297 304
158 161 164 165 164 164 161 157 151 149 151 152 152 153 154 155 157 157 158 157 147 135 140 189 207 209 197 215 256 278 284 294 308 316 316 308 293 298
162 162 161 161 162 160 155 152 153 155 154 153 154 155 158 156 157 156 154 153 139 146 166 213 251 321 35 64 13 307 299 307 310 294 305 314 319 325
165 164 160 157 158 156 151 149 150 152 153 152 155 158 160 159 157 155 156 159 159 154 153 163 350 35 54 71 321 298 312 323 327 329 318 295 305 320
164 160 155 154 156 154 152 153 154 156 157 156 156 159 159 154 150 151 152 150 145 139 132 124 51 27 27 83 328 306 318 330 337 343 337 337 333 321